TimeCDT,TemperatureF,Dew PointF,Humidity,Sea Level PressureIn,VisibilityMPH,Wind Direction,Wind SpeedMPH,Gust SpeedMPH,PrecipitationIn,Events,Conditions,WindDirDegrees,DateUTC
12:15 AM,50.0,33.8,54,30.21,10.0,Calm,Calm,-,N/A,,Clear,0,2013-05-12 05:15:00
12:35 AM,50.0,33.8,54,30.22,10.0,Calm,Calm,-,N/A,,Clear,0,2013-05-12 05:35:00
12:55 AM,46.4,35.6,66,30.23,10.0,Calm,Calm,-,N/A,,Clear,0,2013-05-12 05:55:00
1:15 AM,48.2,32.0,54,30.23,10.0,Calm,Calm,-,N/A,,Clear,0,2013-05-12 06:15:00
1:35 AM,46.4,32.0,57,30.23,10.0,Calm,Calm,-,N/A,,Clear,0,2013-05-12 06:35:00
1:55 AM,46.4,32.0,57,30.23,10.0,Calm,Calm,-,N/A,,Clear,0,2013-05-12 06:55:00
2:15 AM,46.4,32.0,57,30.23,10.0,Calm,Calm,-,N/A,,Clear,0,2013-05-12 07:15:00
2:35 AM,46.4,33.8,62,30.23,10.0,NNW,4.6,-,N/A,,Partly Cloudy,330,2013-05-12 07:35:00
2:55 AM,46.4,33.8,62,30.23,10.0,NW,4.6,-,N/A,,Clear,320,2013-05-12 07:55:00
3:15 AM,46.4,33.8,62,30.23,10.0,Calm,Calm,-,N/A,,Clear,0,2013-05-12 08:15:00
3:35 AM,44.6,33.8,66,30.23,10.0,Calm,Calm,-,N/A,,Clear,0,2013-05-12 08:35:00
3:55 AM,42.8,33.8,70,30.23,10.0,Calm,Calm,-,N/A,,Clear,0,2013-05-12 08:55:00
4:15 AM,41.0,33.8,76,30.24,10.0,Calm,Calm,-,N/A,,Clear,0,2013-05-12 09:15:00
4:35 AM,41.0,33.8,76,30.24,10.0,Calm,Calm,-,N/A,,Clear,0,2013-05-12 09:35:00
4:55 AM,41.0,35.6,81,30.24,10.0,Calm,Calm,-,N/A,,Clear,0,2013-05-12 09:55:00
5:15 AM,41.0,35.6,81,30.24,10.0,Calm,Calm,-,N/A,,Clear,0,2013-05-12 10:15:00
5:35 AM,39.2,35.6,87,30.25,10.0,Calm,Calm,-,N/A,,Clear,0,2013-05-12 10:35:00
5:55 AM,39.2,35.6,87,30.25,10.0,Calm,Calm,-,N/A,,Clear,0,2013-05-12 10:55:00
6:15 AM,39.2,33.8,81,30.26,10.0,Calm,Calm,-,N/A,,Clear,0,2013-05-12 11:15:00
6:35 AM,41.0,32.0,70,30.26,10.0,Calm,Calm,-,N/A,,Clear,0,2013-05-12 11:35:00
6:51 AM,41.0,35.6,81,30.26,10.0,Calm,Calm,-,N/A,,Clear,0,2013-05-12 11:51:00
7:54 AM,48.2,32.0,54,30.29,10.0,Calm,Calm,-,N/A,,Clear,0,2013-05-12 12:54:00
8:48 AM,51.8,33.8,50,30.30,10.0,Calm,Calm,-,N/A,,Clear,0,2013-05-12 13:48:00
9:58 AM,55.4,30.2,38,30.29,10.0,NNW,8.1,-,N/A,,Clear,340,2013-05-12 14:58:00
10:51 AM,57.2,26.6,31,30.29,10.0,NNW,9.2,-,N/A,,Clear,330,2013-05-12 15:51:00
11:50 AM,59.0,26.6,29,30.28,10.0,NW,9.2,-,N/A,,Clear,310,2013-05-12 16:50:00
12:52 PM,60.8,32.0,34,30.26,10.0,NNE,4.6,-,N/A,,Clear,20,2013-05-12 17:52:00
1:47 PM,62.6,30.2,30,30.24,10.0,North,4.6,-,N/A,,Clear,350,2013-05-12 18:47:00
2:55 PM,64.4,26.6,24,30.22,10.0,North,12.7,19.6,N/A,,Partly Cloudy,360,2013-05-12 19:55:00
3:50 PM,66.2,30.2,26,30.20,10.0,North,11.5,-,N/A,,Scattered Clouds,350,2013-05-12 20:50:00
4:45 PM,66.2,32.0,28,30.20,10.0,NNW,5.8,-,N/A,,Mostly Cloudy,330,2013-05-12 21:45:00
5:45 PM,64.4,32.0,30,30.20,10.0,WNW,5.8,-,N/A,,Mostly Cloudy,300,2013-05-12 22:45:00
6:45 PM,62.6,32.0,32,30.18,10.0,Calm,Calm,-,N/A,,Scattered Clouds,0,2013-05-12 23:45:00
7:45 PM,59.0,35.6,42,30.17,10.0,Calm,Calm,-,N/A,,Scattered Clouds,0,2013-05-13 00:45:00
8:45 PM,57.2,35.6,44,30.17,10.0,Calm,Calm,-,N/A,,Mostly Cloudy,0,2013-05-13 01:45:00
9:15 PM,57.2,37.4,48,30.20,10.0,Calm,Calm,-,N/A,,Mostly Cloudy,0,2013-05-13 02:15:00
9:35 PM,55.4,41.0,58,30.20,10.0,Calm,Calm,-,N/A,,Mostly Cloudy,0,2013-05-13 02:35:00
9:55 PM,53.6,42.8,67,30.20,10.0,Calm,Calm,-,N/A,,Mostly Cloudy,0,2013-05-13 02:55:00
10:15 PM,53.6,37.4,54,30.21,10.0,Calm,Calm,-,N/A,,Scattered Clouds,0,2013-05-13 03:15:00
10:35 PM,55.4,37.4,51,30.20,10.0,Calm,Calm,-,N/A,,Mostly Cloudy,0,2013-05-13 03:35:00
10:55 PM,53.6,41.0,62,30.20,10.0,Calm,Calm,-,N/A,,Overcast,0,2013-05-13 03:55:00
11:15 PM,53.6,41.0,62,30.20,10.0,Calm,Calm,-,N/A,,Overcast,0,2013-05-13 04:15:00
11:35 PM,53.6,41.0,62,30.20,10.0,Calm,Calm,-,N/A,,Overcast,0,2013-05-13 04:35:00
11:55 PM,53.6,41.0,62,30.20,10.0,Calm,Calm,-,N/A,,Mostly Cloudy,0,2013-05-13 04:55:00